Randolph AFB, TX

3:39 AM CDT on July 27, 2017 (GMT -0500)
Randolph Air Force Base

Weather History for KRND - October, 2012

Change the Weather History Date:

Wednesday, October 17, 2012

  Actual Average Record
Temperature  
Mean Temperature 76 °F -  
Max Temperature 90 °F 77 °F 91 °F (1996)
Min Temperature 64 °F 58 °F 39 °F (2001)
Cooling Degree Days 12    
Growing Degree Days 26 (Base 50)    
Moisture  
Dew Point 67 °F    
Average Humidity 92    
Maximum Humidity 100    
Minimum Humidity 46    
Precipitation  
Precipitation 0.00 in - - ()
Sea Level Pressure  
Sea Level Pressure 29.74 in    
Wind  
Wind Speed 5 mph (SSW)    
Max Wind Speed 14 mph    
Max Gust Speed -    
Visibility 4 miles    
Events Fog    
Averages and records for this station are not official NWS values.
T = Trace of Precipitation, MM = Missing Value Source: NWS Daily Summary

Daily Weather History Graph

Daily Weather History Graph

Search for Another Location

Airport or City:

Trip Planner

Search our weather history database for the weather conditions in past years. The results will help you decide how hot, cold, wet, or windy it might be!

Date:

Astronomy

Oct. 17, 2012 Rise Set
Actual Time 7:36 AM CDT 6:59 PM CDT
Civil Twilight 7:12 AM CDT 7:24 PM CDT
Nautical Twilight 6:44 AM CDT 7:51 PM CDT
Astronomical Twilight 6:16 AM CDT 8:19 PM CDT
Moon 9:58 AM CDT (10/17) 8:51 PM CDT (10/17)
Length of Visible Light 12h 11m
Length of Day
11h 23m
Waxing Crescent, 7% of the Moon is Illuminated
Oct 17
Waxing Crescent
Oct 21
First Quarter
Oct 29
Full
Nov 6
Last Quarter
Nov 13
New

Hourly Weather History & Observations

Time (CDT) Temp. Heat Index Dew Point Humidity Pressure Visibility Wind Dir Wind Speed Gust Speed Precip Events Conditions
12:35 AM 66.2 °F - 62.6 °F 88% 29.78 in 10.0 mi SE 6.9 mph - N/A   Overcast
12:55 AM 66.0 °F - 63.7 °F 92% 29.78 in 10.0 mi ESE 4.6 mph - N/A   Overcast
1:00 AM 66.2 °F - 64.4 °F 94% 29.78 in 10.0 mi ESE 4.6 mph - N/A   Overcast
1:55 AM 66.0 °F - 64.6 °F 95% 29.78 in 10.0 mi SSE 5.8 mph - N/A   Overcast
2:20 AM 66.2 °F - 64.4 °F 94% 29.78 in 10.0 mi SSE 4.6 mph - N/A   Overcast
2:35 AM 66.2 °F - 64.4 °F 94% 29.78 in 10.0 mi South 6.9 mph - N/A   Overcast
2:55 AM 65.7 °F - 65.5 °F 99% 29.78 in 10.0 mi SE 5.8 mph - N/A   Overcast
3:23 AM 66.2 °F - 66.2 °F 100% 29.78 in 10.0 mi SE 4.6 mph - N/A   Overcast
3:32 AM 66.2 °F - 64.4 °F 94% 29.78 in 7.0 mi SE 3.5 mph - N/A   Overcast
3:39 AM 66.2 °F - 64.4 °F 94% 29.78 in 5.0 mi SE 4.6 mph - N/A   Overcast
3:43 AM 66.2 °F - 64.4 °F 94% 29.78 in 4.0 mi SE 3.5 mph - N/A   Overcast
3:46 AM 66.2 °F - 64.4 °F 94% 29.78 in 4.0 mi SSE 3.5 mph - N/A   Overcast
3:51 AM 66.2 °F - 64.4 °F 94% 29.77 in 3.0 mi SE 4.6 mph - N/A   Overcast
3:52 AM 66.2 °F - 64.4 °F 94% 29.77 in 3.0 mi SE 3.5 mph - N/A   Overcast
3:55 AM 65.3 °F - 64.9 °F 99% 29.77 in 2.5 mi SSE 3.5 mph - N/A   Overcast
3:59 AM 66.2 °F - 64.4 °F 94% 29.77 in 2.0 mi SSE 3.5 mph - N/A   Overcast
4:05 AM 66.2 °F - 66.2 °F 100% 29.76 in 1.8 mi SSE 3.5 mph - N/A   Overcast
4:16 AM 64.4 °F - 64.4 °F 100% 29.76 in 2.0 mi SSE 4.6 mph - N/A   Overcast
4:25 AM 66.2 °F - 66.2 °F 100% 29.76 in 2.0 mi South 4.6 mph - N/A   Overcast
4:55 AM 65.5 °F - 65.5 °F 100% 29.76 in 2.0 mi South 4.6 mph - N/A   Overcast
5:16 AM 66.2 °F - 66.2 °F 100% 29.75 in 1.8 mi Calm Calm - N/A   Overcast
5:22 AM 66.2 °F - 66.2 °F 100% 29.75 in 1.5 mi Calm Calm - N/A   Overcast
5:26 AM 66.2 °F - 66.2 °F 100% 29.75 in 1.5 mi Calm Calm - N/A   Overcast
5:27 AM 66.2 °F - 66.2 °F 100% 29.75 in 1.2 mi Calm Calm - N/A   Overcast
5:36 AM 66.2 °F - 66.2 °F 100% 29.75 in 1.0 mi Calm Calm - N/A   Mist
5:41 AM 66.2 °F - 66.2 °F 100% 29.75 in 1.0 mi Calm Calm - N/A   Mist
5:53 AM 66.2 °F - 66.2 °F 100% 29.75 in 1.0 mi Calm Calm - N/A   Mist
5:55 AM 65.8 °F - 65.8 °F 100% 29.75 in 1.0 mi Calm Calm - N/A   Mist
5:56 AM 66.2 °F - 66.2 °F 100% 29.75 in 0.8 mi Calm Calm - N/A   Mist
6:01 AM 66.2 °F - 66.2 °F 100% 29.75 in 0.8 mi Calm Calm - N/A   Mist
6:07 AM 66.2 °F - 66.2 °F 100% 29.75 in 0.8 mi Calm Calm - N/A   Mist
6:10 AM 66.2 °F - 66.2 °F 100% 29.75 in 0.8 mi Calm Calm - N/A   Mist
6:17 AM 66.2 °F - 66.2 °F 100% 29.74 in 0.8 mi Calm Calm - N/A   Mist
6:20 AM 66.2 °F - 66.2 °F 100% 29.74 in 0.5 mi Calm Calm - N/A Fog Fog
6:55 AM 66.2 °F - 66.2 °F 100% 29.75 in 0.5 mi Calm Calm - N/A Fog Fog
7:33 AM 66.2 °F - 66.2 °F 100% 29.76 in 0.2 mi WSW 3.5 mph - N/A Fog Fog
7:36 AM 66.2 °F - 66.2 °F 100% 29.76 in 0.2 mi SW 3.5 mph - N/A Fog Fog
7:51 AM 66.2 °F - 66.2 °F 100% 29.76 in 0.2 mi Calm Calm - N/A Fog Fog
7:55 AM 66.9 °F - 66.9 °F 100% 29.76 in 0.2 mi Calm Calm - N/A Fog Fog
8:02 AM 66.2 °F - 66.2 °F 100% 29.76 in 0.2 mi Calm Calm - N/A Fog Fog
8:25 AM 68.0 °F - 68.0 °F 100% 29.76 in 0.2 mi SSW 4.6 mph - N/A Fog Fog
8:34 AM 68.0 °F - 68.0 °F 100% 29.76 in 0.4 mi SW 6.9 mph - N/A Fog Fog
8:55 AM 67.5 °F - 67.5 °F 100% 29.75 in 0.4 mi SSW 4.6 mph - N/A Fog Fog
9:04 AM 68.0 °F - 68.0 °F 100% 29.75 in 0.5 mi SW 4.6 mph - N/A Fog Fog
9:16 AM 68.0 °F - 68.0 °F 100% 29.75 in 0.8 mi SW 6.9 mph - N/A   Mist
9:29 AM 68.0 °F - 68.0 °F 100% 29.75 in 1.0 mi SW 4.6 mph - N/A   Mist
9:41 AM 68.0 °F - 68.0 °F 100% 29.77 in 1.5 mi SW 5.8 mph - N/A   Mist
9:55 AM 68.4 °F - 68.4 °F 100% 29.76 in 2.0 mi SW 6.9 mph - N/A   Overcast
10:06 AM 68.0 °F - 68.0 °F 100% 29.76 in 3.0 mi SW 9.2 mph - N/A   Overcast
10:44 AM 69.8 °F - 69.8 °F 100% 29.76 in 3.0 mi SSW 13.8 mph - N/A   Overcast
10:55 AM 70.2 °F - 70.2 °F 100% 29.75 in 4.0 mi SW 11.5 mph - N/A   Overcast
11:16 AM 71.6 °F - 71.6 °F 100% 29.77 in 5.0 mi WSW 10.4 mph - N/A   Overcast
11:25 AM 71.6 °F - 71.6 °F 100% 29.75 in 5.0 mi SW 10.4 mph - N/A   Overcast
11:43 AM 71.6 °F - 71.6 °F 100% 29.75 in 5.0 mi WSW 10.4 mph - N/A   Overcast
11:55 AM 73.6 °F - 71.8 °F 94% 29.74 in 7.0 mi WSW 9.2 mph - N/A   Mostly Cloudy
12:07 PM 75.2 °F - 71.6 °F 89% 29.74 in 7.0 mi WSW 10.4 mph - N/A   Mostly Cloudy
12:27 PM 77.0 °F - 69.8 °F 78% 29.73 in 10.0 mi West 9.2 mph - N/A   Scattered Clouds
12:55 PM 78.3 °F - 70.9 °F 78% 29.71 in 10.0 mi SW 10.4 mph - N/A   Partly Cloudy
1:55 PM 82.8 °F 86.9 °F 70.3 °F 66% 29.67 in 10.0 mi SW 9.2 mph - N/A   Clear
2:55 PM 86.7 °F 92.5 °F 71.2 °F 60% 29.63 in 10.0 mi SSW 9.2 mph - N/A   Clear
3:55 PM 88.7 °F 93.0 °F 69.1 °F 52% 29.62 in 10.0 mi West 9.2 mph - N/A   Clear
4:55 PM 89.8 °F 92.5 °F 66.7 °F 46% 29.62 in 10.0 mi WSW 6.9 mph - N/A   Clear
5:55 PM 89.1 °F 91.7 °F 66.4 °F 47% 29.62 in 10.0 mi SSW 5.8 mph - N/A   Clear
6:55 PM 84.9 °F 87.6 °F 67.1 °F 55% 29.63 in 10.0 mi SSW 5.8 mph - N/A   Clear
7:55 PM 82.2 °F 84.7 °F 67.3 °F 60% 29.65 in 10.0 mi SSW 5.8 mph - N/A   Clear
8:55 PM 77.4 °F - 68.5 °F 74% 29.69 in 10.0 mi Calm Calm - N/A   Clear
9:55 PM 73.0 °F - 69.6 °F 89% 29.70 in 10.0 mi NNW 5.8 mph - N/A   Clear
10:55 PM 71.4 °F - 68.9 °F 92% 29.72 in 10.0 mi NNW 4.6 mph - N/A   Clear
11:00 PM 71.6 °F - 69.8 °F 94% 29.72 in 4.0 mi North 3.5 mph - N/A   Clear
11:09 PM 71.6 °F - 68.0 °F 88% 29.73 in 6.0 mi North 4.6 mph - N/A   Clear
11:55 PM 71.1 °F - 66.4 °F 85% 29.74 in 10.0 mi NNW 4.6 mph - N/A   Clear